Tracking 17143 objects as of 25-May-2015
HD Live streaming from Space Station

CZ-4C DEB

Track CZ-4C DEB now!
10-day predictions
CZ-4C DEB is classified as:


NORAD ID: 38305
Int'l Code: 2010-009J
Perigee: 1,195.1 km
Apogee: 1,345.5 km
Inclination: 63.5 °
Period: 110.8 minutes
Semi major axis: 7641 km
RCS: 0.0013 m2 (small)
Launch date: March 5, 2010
Source: People's Republic of China (PRC)

Note: This is SATELLITE DEBRIS
Your satellite tracking list
Your tracking list is empty





NASA's NSSDC Master Catalog

Two Line Element Set (TLE):
1 38305U 10009J   15143.22633253 -.00000056  00000-0  75057-4 0  9999
2 38305 063.4997 004.1043 0098423 128.5505 334.7876 12.99734792247120

Source of the keplerian elements: AFSPC

N2YO: 343